GPS BIIF-11 (PRN 10)

Last updated on Sat Nov 15 2025 00:03:18 GMT+0000 (Coordinated Universal Time)

1 41019U 15062A 25318.39112593 -.00000099 00000+0 00000+0 0 9998 2 41019 56.8123 39.0988 0109886 229.2084 129.8599 2.00567097 73524
UTC large
Height (km)
Speed (km/s)
/
Latitude / Longitude
Inclination (degrees)
Orbital Period (minutes)
Azimuth
Elevation
Range (km)
Doppler Factor

Next 0 passes for location: London (51.5072 / 0.1276)

Sorry there are no passes over London.